Total_Precipitation_Accumulation
0.86 0.87 0.90 0.99 1.07 1.06 1.02 0.98 1.03 1.13 1.25 1.47 1.79 2.30 2.59 2.66 2.52 2.45 2.36 2.15 1.93 1.91 2.09 2.11 2.10 2.08 2.09 2.07 1.99 2.20 2.14 1.87 1.77 1.98 1.96 1.76 1.56 1.47 1.44 1.48 1.71 1.83 1.73
0.86 0.84 0.83 0.87 0.93 0.91 0.93 1.07 1.12 1.17 1.28 1.53 1.82 2.20 2.63 2.71 2.64 2.51 2.40 2.29 2.17 2.13 2.16 2.39 2.50 2.46 2.65 2.67 2.45 2.55 2.58 2.21 1.98 2.30 2.66 2.35 2.09 1.61 1.47 1.58 1.64 1.74 1.84
0.73 0.77 0.81 0.84 0.83 0.80 0.77 0.90 1.07 1.27 1.55 1.83 2.12 2.30 2.59 2.69 2.68 2.55 2.47 2.48 2.41 2.27 2.34 2.45 2.62 2.62 2.71 2.92 3.04 2.93 3.00 2.79 2.36 2.25 2.63 2.60 2.42 2.15 1.75 1.65 1.71 1.83 1.89
0.67 0.70 0.77 0.82 0.78 0.72 0.71 0.80 0.95 1.24 1.63 1.97 2.20 2.45 2.81 2.91 2.76 2.66 2.54 2.55 2.57 2.55 2.65 2.65 2.71 2.72 2.74 2.85 3.01 3.00 3.17 3.29 2.88 2.51 2.26 2.11 2.14 2.31 2.13 1.83 1.77 1.91 1.89
0.53 0.57 0.62 0.67 0.71 0.77 0.79 0.87 1.07 1.35 1.67 1.89 2.15 2.49 2.68 2.79 2.85 2.72 2.65 2.63 2.66 2.67 2.73 2.77 2.88 2.87 2.84 2.78 2.99 3.09 3.20 3.16 3.11 2.98 2.79 2.63 2.37 2.02 2.18 2.18 1.98 1.87 1.75
0.46 0.55 0.66 0.72 0.80 0.84 0.94 1.06 1.20 1.40 1.65 1.86 2.12 2.28 2.46 2.62 2.67 2.70 2.62 2.58 2.63 2.72 2.60 2.51 2.68 2.74 2.75 2.71 2.87 3.01 3.17 3.16 3.20 3.14 2.85 2.87 2.79 2.42 2.37 2.20 2.03 2.06 1.86
0.56 0.68 0.83 0.99 1.05 1.08 1.13 1.23 1.34 1.52 1.66 1.77 1.93 2.02 2.12 2.25 2.22 2.36 2.40 2.52 2.52 2.55 2.57 2.48 2.48 2.51 2.44 2.42 2.53 2.58 2.67 2.82 3.02 2.92 2.68 2.63 2.49 2.49 2.60 2.51 2.25 2.04 1.80
0.73 0.88 1.05 1.28 1.37 1.40 1.41 1.43 1.49 1.55 1.58 1.63 1.73 1.86 1.93 1.98 1.95 1.93 1.94 2.10 2.25 2.27 2.33 2.37 2.33 2.36 2.37 2.32 2.41 2.41 2.42 2.47 2.53 2.46 2.57 2.63 2.46 2.40 2.41 2.51 2.72 2.49 2.16
1.00 1.14 1.31 1.44 1.45 1.52 1.52 1.52 1.55 1.56 1.55 1.58 1.62 1.60 1.64 1.69 1.71 1.69 1.76 1.80 1.86 1.87 1.92 1.97 2.11 2.23 2.26 2.27 2.38 2.44 2.40 2.33 2.31 2.40 2.47 2.41 2.35 2.34 2.28 2.31 2.53 2.71 2.52
1.34 1.51 1.69 1.69 1.64 1.67 1.75 1.69 1.62 1.59 1.63 1.64 1.62 1.55 1.57 1.60 1.59 1.51 1.57 1.53 1.49 1.51 1.58 1.66 1.85 2.14 2.27 2.28 2.33 2.38 2.38 2.38 2.30 2.39 2.51 2.55 2.50 2.52 2.48 2.39 2.40 2.40 2.46
1.72 1.85 1.96 1.97 1.82 1.71 1.69 1.63 1.55 1.52 1.50 1.55 1.64 1.59 1.54 1.56 1.58 1.50 1.42 1.40 1.39 1.38 1.46 1.54 1.69 1.85 2.07 2.28 2.41 2.39 2.33 2.30 2.26 2.18 2.30 2.45 2.50 2.62 2.67 2.71 2.62 2.51 2.48
1.64 1.70 1.73 1.83 1.75 1.66 1.55 1.52 1.44 1.31 1.33 1.39 1.50 1.59 1.50 1.47 1.49 1.41 1.46 1.37 1.29 1.28 1.30 1.45 1.66 1.78 1.86 1.95 2.03 2.09 2.12 2.13 2.15 2.09 2.05 2.12 2.20 2.32 2.50 2.62 2.60 2.61 2.52
1.36 1.49 1.60 1.56 1.60 1.63 1.54 1.64 1.67 1.51 1.50 1.53 1.63 1.64 1.55 1.52 1.50 1.36 1.43 1.37 1.31 1.28 1.27 1.34 1.51 1.61 1.71 1.77 1.81 1.93 2.02 2.03 1.96 1.94 1.82 1.79 1.90 2.03 2.18 2.27 2.39 2.55 2.59
1.21 1.28 1.40 1.37 1.50 1.61 1.59 1.67 1.72 1.66 1.65 1.74 1.80 1.69 1.61 1.57 1.54 1.40 1.33 1.32 1.32 1.30 1.31 1.43 1.50 1.55 1.57 1.70 1.75 1.83 1.82 1.78 1.68 1.65 1.57 1.55 1.58 1.70 1.88 2.00 2.21 2.44 2.58
1.05 1.02 1.05 1.13 1.25 1.33 1.34 1.39 1.44 1.47 1.57 1.65 1.67 1.67 1.55 1.43 1.39 1.43 1.26 1.26 1.34 1.35 1.39 1.45 1.52 1.56 1.57 1.63 1.72 1.67 1.57 1.56 1.54 1.47 1.29 1.25 1.32 1.37 1.51 1.51 1.79 2.08 2.32
0.84 0.82 0.83 0.88 0.95 0.90 0.93 0.99 1.14 1.31 1.47 1.52 1.49 1.46 1.39 1.39 1.36 1.32 1.26 1.23 1.24 1.29 1.32 1.34 1.48 1.59 1.48 1.68 1.68 1.48 1.32 1.30 1.36 1.34 1.20 1.13 1.15 1.10 1.13 1.18 1.42 1.72 1.90
0.73 0.75 0.76 0.74 0.79 0.78 0.82 0.87 0.97 1.13 1.26 1.32 1.27 1.19 1.16 1.18 1.20 1.19 1.24 1.25 1.24 1.25 1.28 1.23 1.32 1.38 1.48 1.53 1.35 1.34 1.24 1.24 1.25 1.27 1.29 1.17 1.09 1.19 1.07 1.05 1.15 1.25 1.40
0.63 0.68 0.70 0.69 0.73 0.80 0.86 0.93 0.99 1.01 1.10 1.19 1.18 1.13 1.08 1.05 1.06 1.08 1.15 1.24 1.20 1.18 1.22 1.20 1.14 1.18 1.32 1.33 1.17 1.23 1.14 1.24 1.29 1.31 1.40 1.39 1.29 1.27 1.36 1.27 1.25 1.20 1.16
0.46 0.48 0.51 0.53 0.59 0.67 0.73 0.76 0.78 0.79 0.84 0.92 0.97 0.95 0.89 0.93 1.02 1.02 1.14 1.22 1.14 1.13 1.11 1.13 1.09 1.11 1.16 1.16 1.07 1.10 1.11 1.25 1.26 1.20 1.34 1.40 1.32 1.44 1.57 1.60 1.60 1.49 1.31
0.33 0.31 0.35 0.38 0.44 0.52 0.66 0.70 0.66 0.60 0.62 0.69 0.72 0.78 0.78 0.82 0.90 1.01 1.11 1.14 1.11 1.11 1.06 1.03 1.00 0.99 0.98 1.07 0.95 1.04 1.11 1.19 1.22 1.22 1.27 1.47 1.39 1.41 1.41 1.44 1.54 1.49 1.31
0.30 0.29 0.31 0.36 0.41 0.48 0.57 0.61 0.63 0.59 0.59 0.63 0.63 0.66 0.70 0.76 0.88 0.99 0.95 0.92 0.95 1.00 1.01 1.03 0.96 0.91 0.95 1.06 1.05 1.10 1.09 1.16 1.21 1.30 1.33 1.32 1.47 1.34 1.28 1.26 1.22 1.32 1.32
0.27 0.28 0.29 0.34 0.43 0.46 0.47 0.49 0.51 0.51 0.54 0.56 0.60 0.57 0.56 0.61 0.69 0.78 0.86 0.85 0.84 0.88 0.87 0.86 0.85 0.81 0.88 0.95 0.93 0.95 1.00 1.10 1.08 1.13 1.14 1.12 1.28 1.14 1.08 1.01 1.05 1.17 1.24
0.24 0.28 0.34 0.40 0.45 0.48 0.46 0.45 0.45 0.48 0.54 0.58 0.60 0.57 0.55 0.57 0.63 0.70 0.80 0.89 0.91 0.89 0.85 0.77 0.74 0.74 0.75 0.81 0.85 0.82 0.81 0.86 0.87 0.86 1.02 1.06 1.06 1.00 0.92 0.98 1.03 1.06 1.09
0.22 0.27 0.35 0.39 0.45 0.46 0.46 0.45 0.45 0.46 0.50 0.56 0.61 0.60 0.61 0.63 0.64 0.67 0.73 0.86 0.93 0.85 0.76 0.74 0.74 0.77 0.76 0.73 0.72 0.74 0.73 0.74 0.80 0.81 0.90 0.95 0.91 0.90 0.90 0.95 0.99 1.02 1.07
0.22 0.25 0.32 0.37 0.43 0.48 0.46 0.46 0.45 0.44 0.47 0.53 0.57 0.57 0.60 0.65 0.65 0.61 0.61 0.69 0.75 0.81 0.83 0.81 0.81 0.83 0.83 0.76 0.70 0.67 0.70 0.75 0.84 0.93 0.88 0.87 0.86 0.86 0.92 0.95 0.95 1.01 1.06
0.28 0.29 0.31 0.36 0.38 0.43 0.49 0.50 0.54 0.52 0.50 0.51 0.55 0.56 0.59 0.65 0.64 0.60 0.60 0.62 0.64 0.73 0.75 0.75 0.76 0.68 0.65 0.67 0.62 0.60 0.64 0.72 0.81 0.96 1.01 1.03 1.07 1.09 1.09 1.06 0.97 0.94 0.97